Home > Weather > Hattingen > Past weeks

Flag for Germany Weather for the Past 2 Weeks in Hattingen, North Rhine-Westphalia, Germany

Now
68 °F

Passing clouds.


Feels Like: 68 °F
Forecast: 51 / 73 °F
Wind: 10 mph from Southeast

Location: Duesseldorf

Current Time: May 5, 2016 at 5:22:28 PM

Latest Report: May 5, 2016 at 4:50 PM


Visibility: N/A

Pressure: 30.15 "Hg

Humidity: 40%

Dew Point: 43 °F

Location of HattingenLocation

Historic Weather in Hattingen — Graph

°F

Hattingen Temperature Yesterday

Maximum temperature yesterday: 61 °F (at 3:50 PM)
Minimum temperature yesterday: 34 °F (at 6:20 AM)
Average temperature yesterday: 49 °F

High & Low Weather Summary for the Past Weeks

 TemperatureHumidityPressure
High68 °F (Apr 21, 3:50 PM)100% (Apr 25, 7:50 PM)30.42 "Hg (Apr 25, 7:50 PM)
Low34 °F (Apr 25, 4:20 AM)31% (May 4, 6:20 PM)29.50 "Hg (Apr 26, 8:20 AM)
Average47 °F72%30.04 "Hg
* Reported Apr 20 4:20 PM — May 5 4:20 PM, Hattingen, Weather by CustomWeather, © 2016

Note: Actual official high and low records may vary slightly from our data, if they occured in-between our weather recording intervals... More about our weather records

Advertising

Hattingen Weather History for the Previous 24 Hours

Scroll right to see more
 ConditionsComfort  
Time TempWeatherWind HumidityBarometerVisibility
4:20 PM
Thu, May 5
68 °FPassing clouds.8 mph40%30.15 "HgN/A
3:50 PM68 °FPassing clouds.12 mph38%30.18 "HgN/A
3:20 PM66 °FPassing clouds.12 mph43%30.18 "HgN/A
2:50 PM66 °FPassing clouds.9 mph40%30.18 "HgN/A
2:20 PM64 °FPassing clouds.12 mph43%30.21 "HgN/A
1:50 PM64 °FPassing clouds.13 mph46%30.21 "HgN/A
1:20 PM63 °FPassing clouds.12 mph42%30.24 "HgN/A
12:50 PM63 °FPassing clouds.10 mph45%30.24 "HgN/A
12:20 PM63 °FPassing clouds.13 mph39%30.27 "HgN/A
11:50 AM61 °FPassing clouds.10 mph39%30.27 "HgN/A
11:20 AM61 °FPassing clouds.12 mph39%30.27 "HgN/A
10:50 AM59 °FPassing clouds.15 mph36%30.27 "HgN/A
10:20 AM59 °FPassing clouds.12 mph39%30.30 "HgN/A
9:50 AM57 °FSunny.13 mph44%30.30 "Hg10 mi
9:20 AM55 °FPassing clouds.10 mph47%30.30 "HgN/A
8:50 AM54 °FPassing clouds.7 mph51%30.30 "HgN/A
8:20 AM54 °FPassing clouds.9 mph51%30.33 "HgN/A
7:50 AM52 °FPassing clouds.9 mph54%30.33 "HgN/A
7:20 AM48 °FPassing clouds.7 mph62%30.33 "HgN/A
6:50 AM41 °FPassing clouds.6 mph76%30.30 "HgN/A
6:20 AM39 °FPassing clouds.3 mph81%30.33 "HgN/A
5:50 AM37 °FClear.3 mph93%30.33 "Hg10 mi
5:20 AM39 °FClear.2 mph81%30.33 "Hg10 mi
4:50 AM39 °FClear.3 mph81%30.33 "Hg10 mi
4:20 AM41 °FClear.5 mph76%30.33 "Hg10 mi
3:50 AM41 °FClear.3 mph81%30.33 "Hg10 mi
3:20 AM43 °FPassing clouds.3 mph76%30.33 "HgN/A
2:50 AM45 °FClear.5 mph66%30.33 "Hg10 mi
2:20 AM46 °FClear.5 mph62%30.33 "Hg10 mi
1:50 AM45 °FClear.6 mph66%30.33 "Hg10 mi
1:20 AM46 °FClear.8 mph66%30.33 "Hg10 mi
12:50 AM45 °FClear.7 mph66%30.33 "Hg10 mi
12:20 AM46 °FClear.8 mph66%30.33 "Hg10 mi
11:50 PM
Wed, May 4
46 °FClear.8 mph66%30.33 "Hg10 mi
11:20 PM48 °FClear.8 mph62%30.33 "Hg10 mi
10:50 PM46 °FClear.7 mph66%30.33 "Hg10 mi
10:20 PM50 °FClear.6 mph54%30.33 "Hg10 mi
9:50 PM52 °FSunny.6 mph47%30.33 "Hg10 mi
9:20 PM54 °FSunny.6 mph41%30.33 "Hg10 mi
8:50 PM55 °FSunny.7 mph38%30.33 "Hg10 mi
8:20 PM57 °FSunny.7 mph36%30.33 "Hg10 mi
7:50 PM57 °FSunny.7 mph39%30.33 "Hg10 mi
7:20 PM59 °FSunny.8 mph36%30.33 "Hg10 mi
6:50 PM59 °FPassing clouds.7 mph34%30.33 "HgN/A
6:20 PM61 °FPassing clouds.7 mph31%30.33 "HgN/A
5:50 PM61 °FPassing clouds.8 mph36%30.33 "HgN/A
5:20 PM61 °FPassing clouds.8 mph36%30.36 "HgN/A
Weather by CustomWeather, © 2016

See weather overviewHow to use our weather pages